SCP
-0 -0 -0 -0 -0 -0 -0 0 0 0 0 0 0 0 0 0 0 0 0 0 0 0
-0 -0 -0 -0 -0 -0 -0 -0 0 0 0 0 0 0 0 0 0 0 0 0 0 0
-0 -0 -0 -0 -0 -0 -0 -0 -0 0 0 -0 -0 -0 0 0 0 0 0 0 0 0
-0 -0 -0 -0 -0 -0 -0 -0 0 0 0 -0 -0 -0 -0 0 0 0 0 0 0 0
-0 -0 -0 -0 -0 -0 -0 0 0 0 0 -0 -0 -0 -0 -0 0 0 0 0 0 0
-0 -0 -0 -0 -0 -0 0 0 0 0 -0 -0 -0 -0 -0 -0 -0 -0 0 0 0 0
-0 -0 -0 -0 -0 -0 0 0 0 0 0 -0 -0 -0 -0 -0 -0 -0 0 0 0 0
-0 -0 -0 -0 -0 -0 -0 0 0 0 0 0 -0 -0 -0 -0 -0 -0 0 0 0 0
0 0 0 -0 -0 -0 -0 -0 0 0 0 0 -0 -0 -0 -0 -0 -0 0 0 0 0
1 0 0 0 0 -0 -0 -0 -0 -0 -0 -0 -0 -0 -0 -0 -0 -0 0 0 1 0
1 0 0 0 -0 -0 0 -0 -0 -0 -0 -0 0 0 0 -0 -0 -0 0 0 1 1
1 1 1 0 -0 -0 0 0 -0 -0 -0 -0 0 0 0 0 0 -0 -0 0 1 1
1 1 1 0 0 0 0 0 0 0 -0 -0 -0 0 0 0 0 0 0 1 1 0
1 1 1 1 1 1 1 1 0 0 0 0 0 0 0 -0 0 0 1 1 2 1
Wind_Speed_500mb
57 53 49 44 36 30 22 20 18 13 12 9 7 11 14 16 13 11 12 11 12 14
64 60 56 50 41 36 30 24 24 19 16 14 11 13 15 16 16 14 15 16 16 15
61 63 60 56 52 44 38 33 28 24 19 18 17 17 17 18 19 18 17 17 19 20
67 62 62 62 59 53 46 42 39 34 29 28 23 21 21 22 22 22 22 22 23 24
69 66 65 64 62 59 55 50 47 45 41 38 33 30 28 28 27 27 27 27 28 28
78 72 70 69 66 62 59 56 52 52 53 48 42 39 38 36 35 33 32 33 32 32
87 80 73 69 68 68 65 61 60 57 55 55 52 48 46 43 42 40 38 38 37 38
91 84 77 75 69 67 67 67 65 61 61 58 59 56 54 50 49 49 48 47 45 45
93 90 86 81 74 71 68 68 67 68 66 67 65 62 58 55 56 55 56 56 53 52
97 95 93 87 80 77 74 69 69 70 68 70 68 62 60 55 56 59 61 58 58 59
102 99 95 92 89 82 78 76 73 71 70 69 69 61 57 55 55 60 64 57 60 62
101 100 98 97 94 89 84 81 79 73 73 72 68 63 55 53 57 60 67 59 62 66
92 96 96 94 94 93 88 83 79 78 74 72 70 68 56 51 55 63 64 65 74 71
85 88 86 83 84 89 89 84 83 80 78 73 71 68 62 55 57 60 68 72 81 75
Wind_Direction_500mb
215 219 221 222 221 226 230 231 237 254 299 302 318 332 345 351 342 337 338 327 319 315
217 221 222 221 226 229 229 236 244 257 276 278 306 319 324 334 338 323 324 324 319 314
217 221 223 226 231 233 235 240 247 259 261 267 299 309 308 313 322 325 311 313 313 308
219 221 226 229 232 234 238 242 248 253 259 269 283 295 297 296 308 314 313 307 308 311
221 222 226 229 231 233 238 243 246 249 254 262 271 281 291 288 292 304 306 308 303 303
223 223 225 230 232 233 236 241 245 248 252 258 265 272 282 284 281 290 297 296 299 297
224 225 225 229 232 236 237 240 244 248 253 256 262 268 276 277 278 280 285 287 288 291
226 227 226 229 231 236 238 240 244 248 252 255 260 267 271 276 279 278 279 281 284 283
228 229 229 230 231 236 239 240 242 246 250 256 259 265 270 274 277 277 277 276 281 278
229 230 231 230 232 234 237 241 242 245 249 254 260 264 270 273 273 275 275 276 275 272
229 230 231 232 233 232 236 240 244 246 250 255 260 264 270 274 272 272 272 274 274 272
228 229 231 232 233 233 235 239 244 247 252 256 262 267 270 272 271 270 274 278 273 271
231 231 232 233 234 234 236 240 245 250 253 258 264 268 269 270 271 272 277 281 278 268
232 233 232 233 235 235 236 240 244 249 255 259 263 266 268 267 269 275 278 279 274 274
Wind_Speed_850mb
57 53 49 44 36 30 22 20 18 13 12 9 7 11 14 16 13 11 12 11 12 14
64 60 56 50 41 36 30 24 24 19 16 14 11 13 15 16 16 14 15 16 16 15
61 63 60 56 52 44 38 33 28 24 19 18 17 17 17 18 19 18 17 17 19 20
67 62 62 62 59 53 46 42 39 34 29 28 23 21 21 22 22 22 22 22 23 24
69 66 65 64 62 59 55 50 47 45 41 38 33 30 28 28 27 27 27 27 28 28
78 72 70 69 66 62 59 56 52 52 53 48 42 39 38 36 35 33 32 33 32 32
87 80 73 69 68 68 65 61 60 57 55 55 52 48 46 43 42 40 38 38 37 38
91 84 77 75 69 67 67 67 65 61 61 58 59 56 54 50 49 49 48 47 45 45
93 90 86 81 74 71 68 68 67 68 66 67 65 62 58 55 56 55 56 56 53 52
97 95 93 87 80 77 74 69 69 70 68 70 68 62 60 55 56 59 61 58 58 59
102 99 95 92 89 82 78 76 73 71 70 69 69 61 57 55 55 60 64 57 60 62
101 100 98 97 94 89 84 81 79 73 73 72 68 63 55 53 57 60 67 59 62 66
92 96 96 94 94 93 88 83 79 78 74 72 70 68 56 51 55 63 64 65 74 71
85 88 86 83 84 89 89 84 83 80 78 73 71 68 62 55 57 60 68 72 81 75
Wind_Direction_850mb
215 219 221 222 221 226 230 231 237 254 299 302 318 332 345 351 342 337 338 327 319 315
217 221 222 221 226 229 229 236 244 257 276 278 306 319 324 334 338 323 324 324 319 314
217 221 223 226 231 233 235 240 247 259 261 267 299 309 308 313 322 325 311 313 313 308
219 221 226 229 232 234 238 242 248 253 259 269 283 295 297 296 308 314 313 307 308 311
221 222 226 229 231 233 238 243 246 249 254 262 271 281 291 288 292 304 306 308 303 303
223 223 225 230 232 233 236 241 245 248 252 258 265 272 282 284 281 290 297 296 299 297
224 225 225 229 232 236 237 240 244 248 253 256 262 268 276 277 278 280 285 287 288 291
226 227 226 229 231 236 238 240 244 248 252 255 260 267 271 276 279 278 279 281 284 283
228 229 229 230 231 236 239 240 242 246 250 256 259 265 270 274 277 277 277 276 281 278
229 230 231 230 232 234 237 241 242 245 249 254 260 264 270 273 273 275 275 276 275 272
229 230 231 232 233 232 236 240 244 246 250 255 260 264 270 274 272 272 272 274 274 272
228 229 231 232 233 233 235 239 244 247 252 256 262 267 270 272 271 270 274 278 273 271
231 231 232 233 234 234 236 240 245 250 253 258 264 268 269 270 271 272 277 281 278 268
232 233 232 233 235 235 236 240 244 249 255 259 263 266 268 267 269 275 278 279 274 274